User: anonymous   Login
Location: ??????
(55.6130°N, 37.7882°E)
Time: 19:29:44
(UTC+00:00)
Language:

Cosmos 2333 Rocket - Orbit

View from above orbital plane
View from above orbital plane
View from above satellite
View from above satellite

Ground track
Ground track

The orbit data is extracted from the following two-line orbital elements,

1 24298U 96051B   24166.46295042 -.00000223  00000-0 -94059-4 0  9997
2 24298  70.8043  74.5232 0016845 342.9708  17.0844 14.12475809432238
Epoch (UTC): 14 June 2024 11:06:38
Eccentricity: 0.0016845
inclination: 70.8043°
perigee height: 839 km
apogee height: 863 km
right ascension of ascending node: 74.5232°
argument of perigee: 342.9708°
revolutions per day: 14.12475809
mean anomaly at epoch: 17.0844°
orbit number at epoch: 43223

The dashed part of the orbit path shows where the satellite is in the earth's shadow,  

DLR